712  
ASUS43 KDMX 150506  
RWRIA  
 
WEATHER ROUNDUP FOR IOWA  
NATIONAL WEATHER SERVICE DES MOINES IA  
1200 AM CDT SUN SEP 15 2019  
 
NOTE: "FAIR" INDICATES FEW OR NO CLOUDS BELOW 12,000 FEET WITH NO  
SIGNIFICANT WEATHER AND/OR S TO VISIBILITY
.  
 
* - THESE STATIONS ARE NOT NWS STATIONS...THUS NOT UNDER NWS  
QUALITY CONTROL. THEY ALSO DO NOT REPORT WEATHER SUCH  
AS PRECIPITATION OR FOG.
 
 
IAZ001>003-012>014-020>022-031>034-043>046-150600-  
NORTHWEST IOWA  
 
CITY SKY/WX TMP DP RH WIND PRES REMARKS
 
CARROLL * PTCLDY 73 70 88 S8 29.95F  
CHEROKEE * FOG 66 66 100 CALM 29.94F VSB 1/2  
DENISON * PTCLDY 72 72 100 S5 29.97F  
LE MARS * CLEAR 70 70 100 S5 29.93S  
SHELDON * N/A 66 66 100 SE3 29.93S  
SIOUX CITY CLEAR 69 68 96 MISG 29.93S  
SPENCER PTCLDY 67 64 90 E6 29.96F  
STORM LAKE * CLEAR 70 70 100 S7 29.93S  

 
 
IAZ055>058-069>071-079>083-090>094-150600-  
SOUTHWEST IOWA  
 
CITY SKY/WX TMP DP RH WIND PRES REMARKS
 
ATLANTIC * PTCLDY 73 73 100 S7 29.97S  
AUDUBON * N/A 73 70 88 S8 29.97F  
CLARINDA * MOCLDY 75 73 94 S8 30.01S  
COUNCIL BLFS * PTCLDY 79 73 83 S10G20 29.95S HX 82  
CRESTON * MOCLDY 73 70 88 S10G16 30.01S  
LAMONI CLEAR 73 69 87 S9 30.03S  
RED OAK * CLOUDY 77 72 83 S8 29.98S  
SHENANDOAH * CLEAR 77 72 83 S9G16 29.97S  

 
 
IAZ047>049-059>061-072>074-084-150600-  
CENTRAL IOWA  
 
CITY SKY/WX TMP DP RH WIND PRES REMARKS
 
AMES CLEAR 68 65 90 SE6 29.98F  
ANKENY * PTCLDY 68 66 94 SE3 29.99F  
BOONE * CLEAR 68 68 100 S5 29.98S  
CHARITON * CLOUDY 73 72 94 S8 30.01F  
DES MOINES MOCLDY 72 67 84 SE7 29.98F  
GRINNELL* LGT RAIN 71 67 89 SE12 30.03F  
KNOXVILLE * CLOUDY 72 68 88 S9G15 30.00F  
MARSHALLTOWN MOCLDY 68 64 87 SE9 29.99F  
NEWTON * CLOUDY 70 66 88 SE8 30.00F  
PELLA * PTCLDY 72 63 74 SE7 30.01F  
PERRY * FAIR 69 68 95 SE3 29.97F  

 
 
IAZ004>006-015-016-023>025-035-036-150600-  
NORTH CENTRAL IOWA  
 
CITY SKY/WX TMP DP RH WIND PRES REMARKS
 
ALGONA * PTCLDY 68 68 100 S8 29.96F  
CLARION * MOCLDY 70 68 94 S8 29.98F  
ESTHERVILLE PTCLDY 62 61 96 CALM 29.96F  
FORT DODGE * MOCLDY 69 67 93 SE6 29.97F  
MASON CITY PTCLDY 65 62 90 S3 29.99F  
FOREST CITY * MOCLDY 64 64 100 CALM 29.99S  
IOWA FALLS * N/A 69 61 76 S10 30.00F  

 
 
IAZ007>011-017>019-026>030-037>042-050>054-066-150600-  
NORTHEAST IOWA  
 
CITY SKY/WX TMP DP RH WIND PRES REMARKS
 
CEDAR RAPIDS N/A 69 63 81 S8 30.03F  
CHARLES CITY * CLOUDY 68 63 83 S9 30.00F  
CLINTON * LGT RAIN 67 64 90 SW7 30.10F  
DECORAH * MOCLDY 64 61 88 S5 30.00F  
DUBUQUE MOCLDY 66 63 90 SW8 30.07F  
MONTICELLO * CLOUDY 66 66 100 S9 30.04F  
OELWEIN * MOCLDY 66 66 100 SE10 30.01F  
WATERLOO FAIR 69 62 78 S9 29.98F  

 
 
IAZ064-065-067-068-078-150600-  
EAST CENTRAL IOWA  
 
CITY SKY/WX TMP DP RH WIND PRES REMARKS
 
DAVENPORT CLOUDY 71 62 73 S12 30.09F  
IOWA CITY MOCLDY 68 64 87 SE9 30.05F THUNDER  
MUSCATINE * CLOUDY 68 64 88 SE7 30.07F  
QUAD CITIES MOCLDY 70 62 76 S8 30.08F  

 
 
IAZ062-063-075>077-085>089-095>099-150600-  
SOUTHEAST IOWA  
 
CITY SKY/WX TMP DP RH WIND PRES REMARKS
 
BURLINGTON MOCLDY 71 60 68 S8 30.09S  
FAIRFIELD * MOCLDY 72 63 73 SE8 30.05F  
FORT MADISON * CLEAR 72 63 73 S7 30.10S  
KEOKUK * CLEAR 75 61 60 S8G16 30.08F  
OSKALOOSA * FAIR 69 62 78 SE6 30.03F  
CENTERVILLE * FAIR 70 68 94 S7 30.05S  
OTTUMWA CLEAR 72 62 71 S10 30.02F  
WASHINGTON * PTCLDY 68 66 94 S9 30.03F  

 
 
ABBREVIATIONS USED IN REMARKS  
TC - TEMPERATURES IN CELSIUS  
WCI - WIND CHILL INDEX  
HX - HEAT INDEX  
VSB - VISIBILITY  

 
 
 
 
CLICK HERE TO GO TO PREVIOUS BULLETINS.

The Nexlab IA Page Main Text Page